When you browse on this site, cookies collect data to enhance your experience and personalize the content and advertising you see.
Visit our Privacy Policy to learn more. By continuing to use the site, you agree to this use of cookies and data.
  • en Suisse
  • Liste des pays
  • À 7 jours
  • Température de l'eau
  • Carte satellitaire
  • Carte météo
  • Widgets météo
  • user-avatar
    Se connecter

    Météo par heure à Molepolole

    Ce jour, 24 Janvier, Jeudi

    Heure Température Précipitation Vent Pression Humidité
    00:00 +30°C° 0 mm 1 m/s 662 mmHg 30%
    01:00 +30°C° 0 mm 1 m/s 662 mmHg 31%
    02:00 +28°C° 0 mm 0 m/s 662 mmHg 34%
    03:00 +27°C° 0 mm 0 m/s 662 mmHg 35%
    04:00 +27°C° 0 mm 0 m/s 662 mmHg 35%
    05:00 +27°C° 0 mm 0 m/s 662 mmHg 36%
    06:00 +29°C° 0 mm 1 m/s 663 mmHg 34%
    07:00 +30°C° 0 mm 1 m/s 663 mmHg 32%
    08:00 +31°C° 0 mm 2 m/s 664 mmHg 29%
    09:00 +32°C° 0 mm 2 m/s 664 mmHg 26%
    10:00 +34°C° 0 mm 2 m/s 664 mmHg 24%
    11:00 +36°C° 0 mm 3 m/s 664 mmHg 22%
    12:00 +37°C° 0 mm 2 m/s 664 mmHg 20%
    13:00 +38°C° 0 mm 2 m/s 664 mmHg 19%
    14:00 +39°C° 0 mm 1 m/s 664 mmHg 17%
    15:00 +39°C° 0 mm 2 m/s 663 mmHg 17%
    16:00 +39°C° 0 mm 2 m/s 663 mmHg 18%
    17:00 +38°C° 0 mm 2 m/s 662 mmHg 18%
    18:00 +37°C° 0 mm 2 m/s 662 mmHg 20%
    19:00 +36°C° 0 mm 2 m/s 662 mmHg 22%
    20:00 +35°C° 0 mm 2 m/s 662 mmHg 23%
    21:00 +34°C° 0 mm 2 m/s 662 mmHg 25%
    22:00 +32°C° 0 mm 2 m/s 662 mmHg 26%
    23:00 +31°C° 0 mm 2 m/s 663 mmHg 28%

    Demain, 25 Janvier, Vendredi

    Heure Température Précipitation Vent Pression Humidité
    00:00 +30°C° 0 mm 3 m/s 663 mmHg 31%
    01:00 +29°C° 0 mm 4 m/s 663 mmHg 35%
    02:00 +29°C° 0 mm 5 m/s 663 mmHg 38%
    03:00 +28°C° 0 mm 6 m/s 663 mmHg 40%
    04:00 +28°C° 0 mm 6 m/s 663 mmHg 42%
    05:00 +27°C° 0 mm 6 m/s 663 mmHg 44%
    06:00 +27°C° 0 mm 6 m/s 664 mmHg 44%
    07:00 +27°C° 0 mm 5 m/s 664 mmHg 44%
    08:00 +26°C° 0 mm 4 m/s 665 mmHg 43%
    09:00 +27°C° 0 mm 5 m/s 665 mmHg 43%
    10:00 +28°C° 0 mm 6 m/s 665 mmHg 42%
    11:00 +29°C° 0 mm 6 m/s 665 mmHg 41%
    12:00 +32°C° 0 mm 6 m/s 665 mmHg 37%
    13:00 +34°C° 0 mm 6 m/s 665 mmHg 33%
    14:00 +36°C° 0 mm 6 m/s 665 mmHg 29%
    15:00 +38°C° 0 mm 6 m/s 664 mmHg 27%
    16:00 +37°C° 0 mm 5 m/s 664 mmHg 25%
    17:00 +37°C° 0 mm 5 m/s 663 mmHg 23%
    18:00 +35°C° 0 mm 4 m/s 663 mmHg 27%
    19:00 +33°C° 0 mm 4 m/s 663 mmHg 32%
    20:00 +30°C° 0 mm 4 m/s 663 mmHg 36%
    21:00 +29°C° 0.7 mm 5 m/s 663 mmHg 42%
    22:00 +28°C° 0.7 mm 5 m/s 663 mmHg 48%
    23:00 +27°C° 0.7 mm 6 m/s 664 mmHg 54%

    Après-demain, 26 Janvier, Samedi

    Heure Température Précipitation Vent Pression Humidité
    00:00 +26°C° 0 mm 5 m/s 663 mmHg 57%
    01:00 +26°C° 0 mm 5 m/s 663 mmHg 59%
    02:00 +25°C° 0 mm 4 m/s 662 mmHg 61%
    03:00 +25°C° 0.3 mm 4 m/s 662 mmHg 61%
    04:00 +25°C° 0.3 mm 4 m/s 662 mmHg 61%
    05:00 +23°C° 0.3 mm 4 m/s 662 mmHg 60%
    06:00 +25°C° 0 mm 5 m/s 663 mmHg 57%
    07:00 +26°C° 0 mm 6 m/s 664 mmHg 54%
    08:00 +26°C° 0 mm 7 m/s 665 mmHg 50%
    09:00 +28°C° 0 mm 7 m/s 665 mmHg 46%
    10:00 +30°C° 0 mm 7 m/s 666 mmHg 41%
    11:00 +33°C° 0 mm 6 m/s 666 mmHg 36%
    12:00 +35°C° 0 mm 6 m/s 666 mmHg 32%
    13:00 +36°C° 0 mm 6 m/s 665 mmHg 29%
    14:00 +39°C° 0 mm 5 m/s 665 mmHg 25%
    15:00 +38°C° 0 mm 6 m/s 664 mmHg 25%
    16:00 +38°C° 0 mm 6 m/s 663 mmHg 25%
    17:00 +38°C° 0 mm 6 m/s 663 mmHg 25%
    18:00 +34°C° 0.3 mm 6 m/s 662 mmHg 33%
    19:00 +32°C° 0.3 mm 5 m/s 662 mmHg 41%
    20:00 +28°C° 0.3 mm 5 m/s 662 mmHg 48%
    21:00 +28°C° 0.4 mm 4 m/s 663 mmHg 53%
    22:00 +27°C° 0.4 mm 4 m/s 663 mmHg 58%
    23:00 +26°C° 0.4 mm 3 m/s 663 mmHg 63%

    27 Janvier, Dimanche

    Heure Température Précipitation Vent Pression Humidité
    00:00 +26°C° 0.1 mm 4 m/s 664 mmHg 60%
    01:00 +26°C° 0.1 mm 4 m/s 664 mmHg 57%
    02:00 +26°C° 0.1 mm 5 m/s 664 mmHg 55%
    03:00 +24°C° 0 mm 6 m/s 664 mmHg 62%
    04:00 +23°C° 0 mm 7 m/s 664 mmHg 69%
    05:00 +22°C° 0 mm 7 m/s 663 mmHg 76%
    06:00 +23°C° 0 mm 8 m/s 664 mmHg 74%
    07:00 +23°C° 0 mm 8 m/s 665 mmHg 73%
    08:00 +23°C° 0 mm 8 m/s 665 mmHg 72%
    09:00 +26°C° 0 mm 8 m/s 665 mmHg 66%
    10:00 +27°C° 0 mm 8 m/s 666 mmHg 60%
    11:00 +28°C° 0 mm 8 m/s 666 mmHg 54%
    12:00 +29°C° 0 mm 7 m/s 665 mmHg 51%
    13:00 +30°C° 0 mm 6 m/s 665 mmHg 48%
    14:00 +32°C° 0 mm 6 m/s 664 mmHg 44%
    15:00 +33°C° 0 mm 5 m/s 664 mmHg 43%
    16:00 +33°C° 0 mm 4 m/s 663 mmHg 42%
    17:00 +33°C° 0 mm 4 m/s 663 mmHg 41%
    18:00 +32°C° 0 mm 4 m/s 663 mmHg 44%
    19:00 +30°C° 0 mm 5 m/s 663 mmHg 46%
    20:00 +29°C° 0 mm 6 m/s 662 mmHg 49%
    21:00 +27°C° 3.2 mm 6 m/s 663 mmHg 59%
    22:00 +24°C° 3.2 mm 6 m/s 663 mmHg 69%
    23:00 +22°C° 3.2 mm 6 m/s 664 mmHg 79%

    28 Janvier, Lundi

    Heure Température Précipitation Vent Pression Humidité
    00:00 +22°C° 3.9 mm 7 m/s 664 mmHg 78%
    01:00 +22°C° 3.9 mm 9 m/s 664 mmHg 77%
    02:00 +21°C° 3.9 mm 10 m/s 664 mmHg 76%
    03:00 +21°C° 0 mm 9 m/s 664 mmHg 78%
    04:00 +21°C° 0 mm 7 m/s 664 mmHg 80%
    05:00 +20°C° 0 mm 5 m/s 664 mmHg 81%
    06:00 +21°C° 0 mm 5 m/s 664 mmHg 80%
    07:00 +21°C° 0 mm 6 m/s 665 mmHg 79%
    08:00 +21°C° 0 mm 6 m/s 665 mmHg 78%
    09:00 +22°C° 0 mm 5 m/s 665 mmHg 74%
    10:00 +23°C° 0 mm 5 m/s 666 mmHg 70%
    11:00 +25°C° 0 mm 5 m/s 666 mmHg 66%
    12:00 +27°C° 0 mm 4 m/s 666 mmHg 60%
    13:00 +28°C° 0 mm 4 m/s 665 mmHg 54%
    14:00 +30°C° 0 mm 4 m/s 665 mmHg 48%
    15:00 +30°C° 0 mm 4 m/s 664 mmHg 45%
    16:00 +32°C° 0 mm 4 m/s 664 mmHg 43%
    17:00 +33°C° 0 mm 4 m/s 664 mmHg 40%
    18:00 +30°C° 0 mm 4 m/s 664 mmHg 44%
    19:00 +29°C° 0 mm 4 m/s 663 mmHg 48%
    20:00 +27°C° 0 mm 4 m/s 663 mmHg 52%
    21:00 +27°C° 0 mm 4 m/s 663 mmHg 54%
    22:00 +26°C° 0 mm 5 m/s 663 mmHg 56%
    23:00 +25°C° 0 mm 5 m/s 663 mmHg 58%

    29 Janvier, Mardi

    Heure Température Précipitation Vent Pression Humidité
    00:00 +25°C° 0 mm 5 m/s 663 mmHg 61%
    01:00 +23°C° 0 mm 5 m/s 664 mmHg 64%
    02:00 +23°C° 0 mm 5 m/s 664 mmHg 67%
    03:00 +22°C° 0 mm 4 m/s 664 mmHg 69%
    04:00 +22°C° 0 mm 3 m/s 664 mmHg 70%
    05:00 +21°C° 0 mm 3 m/s 665 mmHg 72%
    06:00 +21°C° 0 mm 4 m/s 665 mmHg 71%
    07:00 +22°C° 0 mm 4 m/s 666 mmHg 69%
    08:00 +22°C° 0 mm 5 m/s 666 mmHg 68%
    09:00 +25°C° 0 mm 5 m/s 667 mmHg 61%
    10:00 +27°C° 0 mm 5 m/s 667 mmHg 53%
    11:00 +29°C° 0 mm 4 m/s 667 mmHg 46%
    12:00 +30°C° 0 mm 4 m/s 666 mmHg 42%
    13:00 +33°C° 0 mm 3 m/s 666 mmHg 39%
    14:00 +34°C° 0 mm 3 m/s 665 mmHg 35%
    15:00 +34°C° 0 mm 2 m/s 665 mmHg 34%
    16:00 +34°C° 0 mm 2 m/s 664 mmHg 34%
    17:00 +34°C° 0 mm 2 m/s 664 mmHg 33%
    18:00 +31°C° 0 mm 2 m/s 664 mmHg 36%
    19:00 +30°C° 0 mm 2 m/s 664 mmHg 39%
    20:00 +29°C° 0 mm 2 m/s 664 mmHg 42%
    21:00 +28°C° 0 mm 2 m/s 664 mmHg 43%
    22:00 +27°C° 0 mm 2 m/s 664 mmHg 44%
    23:00 +27°C° 0 mm 2 m/s 664 mmHg 45%
    Voir plus